• In Uzbekistan
  • List of Countries
  • For 7 days
  • Water Temperature
  • Weather Map
  • Weather Widgets
  • user-avatar
    Login

    Hourly Weather Kalgoorlie

    Today, 27 February, Thursday

    Time Temperature Precipitation Wind Pressure Humidity
    00:00 +26°C° 0 mm 8 mps 730 mmHg 56%
    01:00 +24°C° 0 mm 8 mps 730 mmHg 60%
    02:00 +22°C° 0 mm 7 mps 729 mmHg 63%
    03:00 +22°C° 0 mm 8 mps 729 mmHg 64%
    04:00 +21°C° 0 mm 8 mps 729 mmHg 66%
    05:00 +21°C° 0 mm 8 mps 729 mmHg 68%
    06:00 +21°C° 0 mm 8 mps 730 mmHg 66%
    07:00 +22°C° 0 mm 8 mps 730 mmHg 64%
    08:00 +22°C° 0 mm 8 mps 730 mmHg 62%
    09:00 +24°C° 0 mm 8 mps 730 mmHg 55%
    10:00 +27°C° 0 mm 7 mps 730 mmHg 49%
    11:00 +29°C° 0 mm 7 mps 730 mmHg 43%
    12:00 +30°C° 0 mm 7 mps 730 mmHg 40%
    13:00 +33°C° 0 mm 7 mps 729 mmHg 36%
    14:00 +34°C° 0 mm 7 mps 729 mmHg 33%
    15:00 +34°C° 0 mm 7 mps 729 mmHg 32%
    16:00 +35°C° 0 mm 8 mps 729 mmHg 31%
    17:00 +35°C° 0 mm 8 mps 728 mmHg 30%
    18:00 +34°C° 0 mm 8 mps 729 mmHg 32%
    19:00 +33°C° 0 mm 7 mps 729 mmHg 34%
    20:00 +32°C° 0 mm 7 mps 729 mmHg 35%
    21:00 +31°C° 0 mm 8 mps 729 mmHg 38%
    22:00 +28°C° 0 mm 9 mps 729 mmHg 40%
    23:00 +27°C° 0 mm 11 mps 729 mmHg 42%

    Tomorrow, 28 February, Friday

    Time Temperature Precipitation Wind Pressure Humidity
    00:00 +26°C° 0 mm 10 mps 729 mmHg 45%
    01:00 +24°C° 0 mm 10 mps 728 mmHg 49%
    02:00 +22°C° 0 mm 10 mps 728 mmHg 52%
    03:00 +22°C° 0 mm 9 mps 728 mmHg 55%
    04:00 +21°C° 0 mm 9 mps 728 mmHg 58%
    05:00 +19°C° 0 mm 9 mps 728 mmHg 60%
    06:00 +21°C° 0 mm 8 mps 728 mmHg 58%
    07:00 +22°C° 0 mm 8 mps 729 mmHg 56%
    08:00 +22°C° 0 mm 8 mps 729 mmHg 54%
    09:00 +24°C° 0 mm 8 mps 729 mmHg 49%
    10:00 +27°C° 0 mm 7 mps 729 mmHg 43%
    11:00 +29°C° 0 mm 7 mps 729 mmHg 38%
    12:00 +30°C° 0 mm 7 mps 728 mmHg 35%
    13:00 +33°C° 0 mm 6 mps 728 mmHg 31%
    14:00 +35°C° 0 mm 6 mps 727 mmHg 28%
    15:00 +35°C° 0 mm 6 mps 727 mmHg 28%
    16:00 +35°C° 0 mm 7 mps 727 mmHg 27%
    17:00 +35°C° 0 mm 7 mps 727 mmHg 27%
    18:00 +33°C° 0 mm 9 mps 727 mmHg 29%
    19:00 +31°C° 0 mm 11 mps 727 mmHg 31%
    20:00 +28°C° 0 mm 12 mps 727 mmHg 33%
    21:00 +28°C° 0 mm 11 mps 728 mmHg 33%
    22:00 +28°C° 0 mm 9 mps 728 mmHg 33%
    23:00 +27°C° 0 mm 8 mps 728 mmHg 34%

    Day after tomorrow, 29 February, Saturday

    Time Temperature Precipitation Wind Pressure Humidity
    00:00 +27°C° 0 mm 8 mps 728 mmHg 38%
    01:00 +26°C° 0 mm 9 mps 727 mmHg 43%
    02:00 +24°C° 0 mm 9 mps 727 mmHg 47%
    03:00 +24°C° 0 mm 9 mps 727 mmHg 46%
    04:00 +24°C° 0 mm 8 mps 727 mmHg 45%
    05:00 +24°C° 0 mm 8 mps 727 mmHg 44%
    06:00 +24°C° 0 mm 7 mps 727 mmHg 43%
    07:00 +24°C° 0 mm 6 mps 727 mmHg 42%
    08:00 +24°C° 0 mm 6 mps 728 mmHg 41%
    09:00 +26°C° 0 mm 7 mps 727 mmHg 37%
    10:00 +27°C° 0 mm 9 mps 727 mmHg 34%
    11:00 +28°C° 0 mm 10 mps 727 mmHg 30%
    12:00 +29°C° 0.1 mm 11 mps 727 mmHg 28%
    13:00 +31°C° 0.1 mm 11 mps 726 mmHg 27%
    14:00 +32°C° 0.1 mm 11 mps 726 mmHg 25%
    15:00 +31°C° 0 mm 10 mps 725 mmHg 29%
    16:00 +29°C° 0 mm 9 mps 725 mmHg 33%
    17:00 +28°C° 0 mm 8 mps 725 mmHg 37%
    18:00 +27°C° 0.2 mm 6 mps 725 mmHg 41%
    19:00 +26°C° 0.2 mm 4 mps 725 mmHg 46%
    20:00 +26°C° 0.2 mm 2 mps 725 mmHg 51%
    21:00 +25°C° 0.1 mm 2 mps 725 mmHg 52%
    22:00 +25°C° 0.1 mm 2 mps 725 mmHg 54%
    23:00 +25°C° 0.1 mm 3 mps 725 mmHg 55%

    1 March, Sunday

    Time Temperature Precipitation Wind Pressure Humidity
    00:00 +25°C° 0.1 mm 3 mps 725 mmHg 58%
    01:00 +25°C° 0.1 mm 2 mps 724 mmHg 60%
    02:00 +25°C° 0.1 mm 2 mps 724 mmHg 62%
    03:00 +24°C° 0.2 mm 1 mps 724 mmHg 65%
    04:00 +24°C° 0.2 mm 1 mps 725 mmHg 67%
    05:00 +21°C° 0.2 mm 0 mps 725 mmHg 70%
    06:00 +24°C° 0.2 mm 2 mps 725 mmHg 67%
    07:00 +23°C° 0.2 mm 4 mps 726 mmHg 65%
    08:00 +24°C° 0.2 mm 7 mps 727 mmHg 62%
    09:00 +26°C° 0 mm 6 mps 727 mmHg 57%
    10:00 +28°C° 0 mm 6 mps 727 mmHg 51%
    11:00 +29°C° 0 mm 6 mps 727 mmHg 46%
    12:00 +30°C° 0 mm 7 mps 727 mmHg 44%
    13:00 +30°C° 0 mm 7 mps 727 mmHg 43%
    14:00 +32°C° 0 mm 7 mps 726 mmHg 41%
    15:00 +31°C° 0 mm 8 mps 726 mmHg 46%
    16:00 +29°C° 0 mm 9 mps 726 mmHg 50%
    17:00 +28°C° 0 mm 10 mps 726 mmHg 55%
    18:00 +27°C° 0 mm 10 mps 727 mmHg 58%
    19:00 +26°C° 0 mm 11 mps 728 mmHg 61%
    20:00 +24°C° 0 mm 11 mps 729 mmHg 65%
    21:00 +24°C° 0 mm 11 mps 729 mmHg 67%
    22:00 +23°C° 0 mm 11 mps 729 mmHg 70%
    23:00 +22°C° 0 mm 10 mps 730 mmHg 72%

    2 March, Monday

    Time Temperature Precipitation Wind Pressure Humidity
    00:00 +22°C° 0 mm 10 mps 729 mmHg 72%
    01:00 +21°C° 0 mm 10 mps 729 mmHg 72%
    02:00 +21°C° 0 mm 10 mps 729 mmHg 72%
    03:00 +21°C° 0 mm 9 mps 730 mmHg 73%
    04:00 +21°C° 0 mm 9 mps 730 mmHg 74%
    05:00 +21°C° 0 mm 9 mps 730 mmHg 74%
    06:00 +21°C° 0 mm 9 mps 730 mmHg 73%
    07:00 +21°C° 0 mm 9 mps 731 mmHg 72%
    08:00 +21°C° 0 mm 9 mps 731 mmHg 71%
    09:00 +21°C° 0 mm 9 mps 731 mmHg 69%
    10:00 +22°C° 0 mm 9 mps 731 mmHg 67%
    11:00 +22°C° 0 mm 9 mps 731 mmHg 65%
    12:00 +23°C° 0 mm 9 mps 731 mmHg 60%
    13:00 +24°C° 0 mm 9 mps 731 mmHg 55%
    14:00 +27°C° 0 mm 9 mps 730 mmHg 50%
    15:00 +27°C° 0 mm 9 mps 730 mmHg 49%
    16:00 +27°C° 0 mm 9 mps 730 mmHg 48%
    17:00 +27°C° 0 mm 9 mps 730 mmHg 47%
    18:00 +26°C° 0 mm 9 mps 730 mmHg 50%
    19:00 +24°C° 0 mm 9 mps 731 mmHg 54%
    20:00 +22°C° 0 mm 9 mps 731 mmHg 57%
    21:00 +22°C° 0 mm 9 mps 731 mmHg 57%
    22:00 +21°C° 0 mm 9 mps 731 mmHg 58%
    23:00 +21°C° 0 mm 9 mps 731 mmHg 59%

    3 March, Tuesday

    Time Temperature Precipitation Wind Pressure Humidity
    00:00 +20°C° 0 mm 8 mps 731 mmHg 62%
    01:00 +18°C° 0 mm 8 mps 731 mmHg 66%
    02:00 +17°C° 0 mm 8 mps 731 mmHg 69%
    03:00 +16°C° 0 mm 8 mps 731 mmHg 71%
    04:00 +16°C° 0 mm 8 mps 731 mmHg 73%
    05:00 +16°C° 0 mm 8 mps 731 mmHg 75%
    06:00 +16°C° 0 mm 8 mps 731 mmHg 73%
    07:00 +16°C° 0 mm 7 mps 731 mmHg 71%
    08:00 +17°C° 0 mm 7 mps 731 mmHg 69%
    09:00 +20°C° 0 mm 7 mps 731 mmHg 61%
    10:00 +22°C° 0 mm 7 mps 731 mmHg 54%
    11:00 +24°C° 0 mm 6 mps 731 mmHg 47%
    12:00 +26°C° 0 mm 6 mps 731 mmHg 43%
    13:00 +28°C° 0 mm 6 mps 730 mmHg 40%
    14:00 +29°C° 0 mm 5 mps 730 mmHg 36%
    15:00 +29°C° 0 mm 5 mps 729 mmHg 35%
    16:00 +29°C° 0 mm 5 mps 729 mmHg 35%
    17:00 +30°C° 0 mm 5 mps 729 mmHg 34%
    18:00 +29°C° 0 mm 5 mps 729 mmHg 35%
    19:00 +28°C° 0 mm 5 mps 729 mmHg 36%
    20:00 +27°C° 0 mm 6 mps 730 mmHg 38%
    21:00 +26°C° 0 mm 6 mps 730 mmHg 38%
    22:00 +25°C° 0 mm 5 mps 730 mmHg 39%
    23:00 +25°C° 0 mm 5 mps 730 mmHg 39%
    Show more